Radiation Dose at Monitoring Post of Fukushima Daini Nuclear Power Station
Date,Time,MP-1(microSv/h),MP-2(microSv/h),MP-3(microSv/h),MP-4(microSv/h),MP-5(microSv/h),MP-6(microSv/h),MP-7(microSv/h),Wind Direction,Wind Velocity(m/s),Rain
2018/09/11,00:00,0.310,0.198,0.307,0.296,0.286,0.157,0.103,north,8.3,Yes
2018/09/11,00:10,0.311,0.200,0.306,0.295,0.287,0.157,0.102,north,9.2,Yes
2018/09/11,00:20,0.309,0.199,0.307,0.295,0.285,0.159,0.104,north,8.2,Yes
2018/09/11,00:30,0.309,0.198,0.306,0.295,0.287,0.158,0.102,north,8.6,Yes
2018/09/11,00:40,0.309,0.197,0.307,0.295,0.286,0.160,0.103,north,7.3,Yes
2018/09/11,00:50,0.309,0.198,0.307,0.298,0.287,0.159,0.103,north,6.2,Yes
2018/09/11,01:00,0.310,0.198,0.308,0.296,0.286,0.161,0.103,north-northeast,7.6,Yes
2018/09/11,01:10,0.309,0.199,0.308,0.298,0.290,0.160,0.103,north,9.5,Yes
2018/09/11,01:20,0.309,0.197,0.309,0.295,0.287,0.161,0.104,north-northeast,10.1,Yes
2018/09/11,01:30,0.307,0.196,0.306,0.298,0.289,0.159,0.103,north,8.5,Yes
2018/09/11,01:40,0.309,0.195,0.308,0.293,0.285,0.158,0.103,north,8.6,Yes
2018/09/11,01:50,0.308,0.196,0.306,0.297,0.288,0.159,0.103,north,9.2,Yes
2018/09/11,02:00,0.312,0.200,0.307,0.297,0.288,0.161,0.107,north,10.7,Yes
2018/09/11,02:10,0.311,0.201,0.307,0.298,0.291,0.162,0.107,north,8.5,Yes
2018/09/11,02:20,0.313,0.203,0.309,0.298,0.290,0.162,0.107,north,7.6,Yes
2018/09/11,02:30,0.309,0.198,0.307,0.299,0.291,0.161,0.105,north,6.7,Yes
2018/09/11,02:40,0.312,0.198,0.308,0.297,0.288,0.159,0.104,north,8.5,Yes
2018/09/11,02:50,0.307,0.198,0.306,0.296,0.289,0.159,0.104,north,8.1,Yes
2018/09/11,03:00,0.309,0.198,0.308,0.295,0.286,0.158,0.105,north,10.0,Yes
2018/09/11,03:10,0.307,0.196,0.305,0.296,0.287,0.159,0.104,north,11.2,Yes
2018/09/11,03:20,0.308,0.196,0.306,0.295,0.285,0.158,0.103,north,7.4,Yes
2018/09/11,03:30,0.306,0.195,0.304,0.294,0.285,0.158,0.106,north,8.1,Yes
2018/09/11,03:40,0.306,0.196,0.305,0.291,0.284,0.158,0.105,north,8.8,Yes
2018/09/11,03:50,0.306,0.194,0.305,0.293,0.285,0.159,0.105,north,8.1,Yes
2018/09/11,04:00,0.306,0.195,0.304,0.292,0.283,0.156,0.105,north,9.2,Yes
2018/09/11,04:10,0.303,0.191,0.303,0.292,0.284,0.156,0.103,north,9.8,Yes
2018/09/11,04:20,0.306,0.192,0.304,0.291,0.281,0.154,0.102,north,8.5,Yes
2018/09/11,04:30,0.303,0.190,0.302,0.292,0.282,0.153,0.100,north,9.6,Yes
2018/09/11,04:40,0.303,0.190,0.303,0.290,0.281,0.152,0.100,north,9.8,Yes
2018/09/11,04:50,0.302,0.188,0.300,0.292,0.281,0.152,0.099,north,9.8,Yes
2018/09/11,05:00,0.301,0.188,0.302,0.290,0.278,0.151,0.097,north,8.4,Yes
2018/09/11,05:10,0.301,0.189,0.300,0.290,0.281,0.150,0.096,north,9.5,No
2018/09/11,05:20,0.300,0.187,0.302,0.289,0.279,0.149,0.095,north-northwest,8.2,Yes
2018/09/11,05:30,0.301,0.189,0.299,0.289,0.280,0.150,0.095,north,9.0,Yes
2018/09/11,05:40,0.300,0.186,0.301,0.288,0.277,0.150,0.095,north,7.9,Yes
2018/09/11,05:50,0.300,0.188,0.299,0.292,0.279,0.149,0.096,north,8.7,Yes
2018/09/11,06:00,0.300,0.188,0.304,0.288,0.278,0.150,0.095,north,9.0,Yes
2018/09/11,06:10,0.301,0.189,0.299,0.290,0.278,0.149,0.095,north,7.7,Yes
2018/09/11,06:20,0.300,0.187,0.302,0.289,0.277,0.149,0.095,north-northwest,8.1,Yes
2018/09/11,06:30,0.300,0.187,0.300,0.291,0.281,0.149,0.095,north,8.6,Yes
2018/09/11,06:40,0.299,0.188,0.301,0.287,0.278,0.150,0.095,north,7.7,Yes
2018/09/11,06:50,0.300,0.188,0.298,0.290,0.279,0.148,0.095,north,7.7,Yes
2018/09/11,07:00,0.299,0.188,0.302,0.287,0.279,0.149,0.094,north,7.2,Yes
2018/09/11,07:10,0.301,0.187,0.300,0.290,0.280,0.148,0.094,north,8.8,Yes
2018/09/11,07:20,0.299,0.188,0.301,0.288,0.279,0.149,0.094,north,7.9,Yes
2018/09/11,07:30,0.300,0.187,0.301,0.290,0.280,0.149,0.094,north,7.4,No
2018/09/11,07:40,0.298,0.187,0.302,0.288,0.278,0.149,0.093,north,6.5,Yes
2018/09/11,07:50,0.300,0.186,0.298,0.290,0.281,0.148,0.094,north,8.7,Yes
2018/09/11,08:00,0.299,0.187,0.300,0.288,0.276,0.149,0.093,north,7.3,Yes
2018/09/11,08:10,0.300,0.187,0.301,0.290,0.279,0.149,0.094,north,7.5,Yes
2018/09/11,08:20,0.298,0.188,0.302,0.288,0.278,0.149,0.094,north,8.1,Yes
2018/09/11,08:30,0.301,0.187,0.299,0.290,0.279,0.148,0.094,north,7.3,Yes
2018/09/11,08:40,0.298,0.187,0.300,0.288,0.278,0.150,0.093,north,7.5,Yes
2018/09/11,08:50,0.300,0.187,0.299,0.289,0.278,0.149,0.093,north,6.7,Yes
2018/09/11,09:00,0.299,0.187,0.302,0.290,0.278,0.148,0.093,north,6.6,Yes
2018/09/11,09:10,0.301,0.187,0.299,0.289,0.277,0.148,0.093,north-northwest,7.6,No
2018/09/11,09:20,0.298,0.186,0.299,0.289,0.279,0.147,0.093,north-northwest,7.4,No
2018/09/11,09:30,0.300,0.185,0.299,0.288,0.274,0.149,0.092,north,7.9,No
2018/09/11,09:40,0.300,0.186,0.301,0.290,0.278,0.147,0.093,north,6.4,No
2018/09/11,09:50,0.297,0.184,0.298,0.286,0.277,0.147,0.092,north,6.0,Yes
2018/09/11,10:00,0.300,0.185,0.300,0.289,0.276,0.146,0.092,north,5.0,Yes
2018/09/11,10:10,0.297,0.185,0.299,0.288,0.278,0.147,0.092,north,5.6,Yes
2018/09/11,10:20,0.301,0.186,0.301,0.288,0.276,0.148,0.093,north,6.7,Yes
2018/09/11,10:30,0.298,0.186,0.297,0.290,0.280,0.148,0.091,north-northwest,5.2,No
2018/09/11,10:40,0.300,0.185,0.300,0.288,0.277,0.147,0.093,north,4.6,No
2018/09/11,10:50,0.299,0.186,0.300,0.290,0.277,0.148,0.091,north-northwest,4.0,Yes
2018/09/11,11:00,0.298,0.184,0.300,0.287,0.278,0.147,0.092,north,5.2,No
2018/09/11,11:10,0.300,0.186,0.300,0.289,0.275,0.147,0.090,north,5.9,No
2018/09/11,11:20,0.297,0.186,0.298,0.288,0.278,0.148,0.092,north,5.9,No
2018/09/11,11:30,0.300,0.185,0.300,0.288,0.275,0.146,0.091,north,5.3,No
2018/09/11,11:40,0.297,0.185,0.299,0.288,0.278,0.148,0.091,north,6.9,No
2018/09/11,11:50,0.298,0.185,0.301,0.287,0.278,0.147,0.091,north,7.5,No
2018/09/11,12:00,0.299,0.186,0.298,0.290,0.275,0.147,0.091,north,5.7,No
2018/09/11,12:10,0.298,0.185,0.300,0.286,0.280,0.148,0.092,north,5.5,Yes
2018/09/11,12:20,0.301,0.186,0.300,0.290,0.276,0.146,0.091,north,6.2,No
2018/09/11,12:30,0.298,0.184,0.300,0.288,0.279,0.148,0.091,north,6.0,No
2018/09/11,12:40,0.300,0.186,0.301,0.290,0.277,0.147,0.092,north,7.3,Yes
2018/09/11,12:50,0.299,0.185,0.299,0.288,0.276,0.147,0.092,north,6.8,Yes
2018/09/11,13:00,0.299,0.187,0.301,0.289,0.278,0.148,0.092,north,7.5,Yes
2018/09/11,13:10,0.300,0.185,0.301,0.290,0.276,0.148,0.092,north,6.2,Yes
2018/09/11,13:20,0.299,0.187,0.302,0.288,0.279,0.149,0.093,north,6.1,Yes
2018/09/11,13:30,0.302,0.186,0.301,0.291,0.278,0.148,0.092,north,5.3,Yes
2018/09/11,13:40,0.298,0.187,0.302,0.288,0.279,0.149,0.092,north,5.0,Yes
2018/09/11,13:50,0.301,0.186,0.299,0.290,0.277,0.149,0.092,north-northwest,6.0,Yes
2018/09/11,14:00,0.300,0.186,0.301,0.287,0.279,0.148,0.093,north,5.2,Yes
2018/09/11,14:10,0.301,0.185,0.300,0.290,0.276,0.149,0.092,north,6.1,Yes
2018/09/11,14:20,0.300,0.187,0.301,0.288,0.278,0.148,0.092,north,6.2,Yes
2018/09/11,14:30,0.302,0.184,0.298,0.290,0.277,0.148,0.092,north-northeast,6.4,No
2018/09/11,14:40,0.300,0.185,0.302,0.287,0.278,0.148,0.091,north,6.9,Yes
2018/09/11,14:50,0.301,0.184,0.299,0.289,0.277,0.148,0.091,north-northeast,6.5,No
2018/09/11,15:00,0.300,0.185,0.301,0.289,0.277,0.147,0.091,north-northeast,7.1,No
2018/09/11,15:10,0.300,0.185,0.300,0.290,0.278,0.147,0.092,north-northeast,9.5,No
2018/09/11,15:20,0.300,0.185,0.301,0.286,0.275,0.147,0.091,north,7.1,No
2018/09/11,15:30,0.298,0.185,0.298,0.289,0.278,0.147,0.092,north,5.4,No
2018/09/11,15:40,0.301,0.184,0.299,0.289,0.275,0.147,0.091,north,5.4,No
2018/09/11,15:50,0.298,0.184,0.301,0.289,0.278,0.147,0.091,north,5.4,No
2018/09/11,16:00,0.301,0.184,0.299,0.289,0.277,0.147,0.091,north,4.8,No
2018/09/11,16:10,0.299,0.186,0.301,0.287,0.275,0.148,0.091,north,4.6,No
2018/09/11,16:20,0.300,0.183,0.298,0.290,0.277,0.147,0.091,north-northwest,4.9,No
2018/09/11,16:30,0.301,0.185,0.301,0.287,0.275,0.148,0.091,north,4.3,No
2018/09/11,16:40,0.298,0.183,0.298,0.290,0.279,0.146,0.091,north-northwest,5.2,No
2018/09/11,16:50,0.302,0.186,0.301,0.287,0.274,0.147,0.092,north-northwest,5.4,No
2018/09/11,17:00,0.299,0.184,0.299,0.290,0.278,0.147,0.091,north,5.6,No
2018/09/11,17:10,0.300,0.184,0.301,0.288,0.275,0.148,0.091,north,6.0,No
2018/09/11,17:20,0.300,0.184,0.301,0.288,0.278,0.147,0.091,north,6.0,No
2018/09/11,17:30,0.300,0.185,0.301,0.288,0.277,0.147,0.092,north,6.1,No
2018/09/11,17:40,0.300,0.185,0.299,0.288,0.277,0.147,0.090,north,5.9,No
2018/09/11,17:50,0.300,0.186,0.301,0.289,0.277,0.147,0.091,north,5.5,No
2018/09/11,18:00,0.302,0.186,0.301,0.288,0.275,0.148,0.091,north,5.5,No
2018/09/11,18:10,0.299,0.185,0.299,0.288,0.278,0.147,0.091,north-northwest,5.7,No
2018/09/11,18:20,0.303,0.185,0.301,0.287,0.277,0.148,0.091,north-northwest,4.0,No
2018/09/11,18:30,0.300,0.185,0.300,0.290,0.279,0.148,0.092,north-northwest,4.7,No
2018/09/11,18:40,0.301,0.185,0.302,0.289,0.275,0.147,0.090,north-northwest,4.0,No
2018/09/11,18:50,0.301,0.186,0.301,0.290,0.278,0.147,0.091,north-northwest,3.9,No
2018/09/11,19:00,0.302,0.185,0.302,0.287,0.275,0.148,0.091,north,4.2,No
2018/09/11,19:10,0.302,0.184,0.299,0.292,0.278,0.149,0.091,north,4.5,No
2018/09/11,19:20,0.300,0.184,0.302,0.289,0.275,0.147,0.091,north,3.6,No
2018/09/11,19:30,0.302,0.185,0.300,0.291,0.279,0.148,0.091,north,3.9,No
2018/09/11,19:40,0.299,0.186,0.302,0.288,0.277,0.148,0.091,north-northeast,2.8,No
2018/09/11,19:50,0.302,0.184,0.299,0.290,0.277,0.148,0.091,northeast,2.9,No
2018/09/11,20:00,0.300,0.187,0.301,0.288,0.279,0.147,0.091,north-northeast,2.6,No
2018/09/11,20:10,0.302,0.186,0.300,0.290,0.276,0.147,0.091,north-northeast,3.1,No
2018/09/11,20:20,0.300,0.185,0.303,0.289,0.278,0.147,0.092,northeast,3.1,No
2018/09/11,20:30,0.302,0.185,0.300,0.289,0.276,0.149,0.091,northeast,3.7,No
2018/09/11,20:40,0.301,0.186,0.302,0.289,0.278,0.147,0.092,north-northeast,2.7,No
2018/09/11,20:50,0.302,0.185,0.300,0.290,0.276,0.148,0.091,north,2.5,No
2018/09/11,21:00,0.302,0.185,0.302,0.290,0.279,0.148,0.091,northeast,2.8,No
2018/09/11,21:10,0.301,0.185,0.300,0.290,0.277,0.148,0.091,north-northeast,2.8,No
2018/09/11,21:20,0.300,0.186,0.301,0.289,0.279,0.148,0.091,northeast,2.5,No
2018/09/11,21:30,0.302,0.186,0.300,0.289,0.276,0.147,0.091,north-northeast,2.1,No
2018/09/11,21:40,0.302,0.186,0.303,0.290,0.278,0.149,0.091,north-northeast,2.8,No
2018/09/11,21:50,0.301,0.186,0.301,0.289,0.276,0.148,0.092,north-northeast,2.7,No
2018/09/11,22:00,0.302,0.185,0.303,0.290,0.279,0.148,0.091,north-northeast,2.7,No
2018/09/11,22:10,0.300,0.186,0.300,0.289,0.277,0.147,0.092,north-northeast,2.9,No
2018/09/11,22:20,0.303,0.185,0.300,0.290,0.279,0.148,0.091,north,2.7,No
2018/09/11,22:30,0.301,0.186,0.301,0.291,0.276,0.148,0.091,north,2.4,No
2018/09/11,22:40,0.302,0.186,0.302,0.289,0.277,0.149,0.092,north-northeast,2.5,No
2018/09/11,22:50,0.302,0.186,0.301,0.290,0.276,0.148,0.092,north-northeast,2.8,No
2018/09/11,23:00,0.302,0.185,0.302,0.288,0.279,0.148,0.092,north,3.4,No
2018/09/11,23:10,0.300,0.187,0.303,0.292,0.276,0.148,0.091,north-northeast,3.4,No
2018/09/11,23:20,0.301,0.186,0.301,0.289,0.279,0.149,0.092,north,3.7,No
2018/09/11,23:30,0.301,0.186,0.301,0.291,0.275,0.148,0.091,north-northeast,4.0,No
2018/09/11,23:40,0.302,0.185,0.301,0.290,0.280,0.148,0.091,north,3.6,No
2018/09/11,23:50,0.301,0.185,0.302,0.292,0.277,0.148,0.091,north-northeast,4.0,Yes
